TERRESTAR-1

Last updated on Sat Aug 15 2026 00:02:58 GMT+0000 (Coordinated Universal Time)

1 35496U 09035A 26226.63583181 -.00000071 00000+0 00000+0 0 9994 2 35496 5.2053 48.7195 0002457 84.7074 307.5293 1.00273456 62720
UTC large
Height (km)
Speed (km/s)
/
Latitude / Longitude
Inclination (degrees)
Orbital Period (minutes)
Azimuth
Elevation
Range (km)
Doppler Factor

Next 0 passes for location: London (51.5072 / 0.1276)

No passes found over London.
TERRESTAR-1